Tracking 17149 objects as of 22-May-2015
HD Live streaming from Space Station

SL-8 R/B

Track SL-8 R/B now!
10-day predictions
SL-8 R/B is classified as:


NORAD ID: 22308
Int'l Code: 1993-001B
Perigee: 968.9 km
Apogee: 1,004.2 km
Inclination: 82.9 °
Period: 104.7 minutes
Semi major axis: 7357 km
RCS: 5.4041 m2 (large)
Launch date: January 12, 1993
Source: Commonwealth of Independent States (former USSR) (CIS)

Note: This is a ROCKET BODY
Your satellite tracking list
Your tracking list is empty





NASA's NSSDC Master Catalog

Two Line Element Set (TLE):
1 22308U 93001B   15141.73493037  .00000104  00000-0  91576-4 0  9993
2 22308 082.9357 010.6077 0024004 154.7846 274.3314 13.75636027122163

Source of the keplerian elements: AFSPC

N2YO: 382